CW0630 Weather Reports


time (UTC)temp
F
wind
direction
speed
knots
gust
knots
rain 1hr
in
rain 24hr
in
rain mn
in
humidity
%
barometer
mb
20230131231024 39 360 2.6 3.5 0.02 0.16 0.16 94 1021.5
20230131221012 40 22 1.7 3.5 0.00 0.14 0.14 93 1021.4
20230131211017 41 50 3.5 3.5 0.00 0.14 0.14 94 1021.3
20230131201013 41 350 7.8 7.8 0.04 0.14 0.14 93 1020.8
20230131191023 42 329 4.3 5.2 0.04 0.11 0.11 93 1021.9
20230131181026 43 26 4.3 4.3 0.02 0.07 0.07 92 1021.2
20230131171024 44 45 6.1 6.1 0.02 0.05 0.05 91 1022.8
20230131161016 48 360 2.6 2.6 0.00 0.03 0.03 92 1022.7
20230131151021 50 68 5.2 5.2 0.00 0.03 0.03 94 1022.3
20230131141019 50 101 3.5 5.2 0.03 0.03 0.03 95 1020.9
20230131131025 50 259 0.9 0.9 0.01 0.01 0.01 94 1020.9
20230131121013 50 216 1.7 1.7 0.00 0.00 0.00 93 1019.8
20230131111016 50 202 4.3 4.3 0.00 0.00 0.00 94 1019.2
20230131101015 50 207 4.3 4.3 0.00 0.00 0.00 95 1019.2
20230131091022 50 194 6.1 6.1 0.00 0.00 0.00 95 1018.9
20230131081021 50 196 1.7 2.6 0.00 0.00 0.00 95 1018.7
20230131071014 50 192 3.5 3.5 0.00 0.00 0.00 95 1019.1
20230131061042 49 206 2.6 2.6 0.00 0.00 0.00 95 1019.3
20230131051054 49 198 0.9 1.7 0.00 0.00 0.00 95 1019.7
20230131041018 49 194 1.7 3.5 0.00 0.00 0.02 94 1020.1
20230131031031 49 187 1.7 2.6 0.00 0.00 0.02 93 1020.4
20230131021045 50 188 1.7 1.7 0.00 0.00 0.02 91 1020.0
20230131011030 51 197 1.7 1.7 0.00 0.00 0.02 88 1020.2
20230131001032 54 180 1.7 1.7 0.00 0.02 0.02 81 1020.1